Location: Arleux
(50.3632°N, 2.8721°E)
Time: 01:24:40
(UTC+00:00)

Feng Yun 1-1 Rocket - Pass Details

Date: 15 December 2019
Orbit: 830 x 933 km, 99.2° (Epoch: 28 January)

Event Time Altitude Azimuth Distance (km) Brightness Sun altitude
Rises 06:29:24 0° 15° (NNE) 3,456 7.3 -10.8°
Reaches altitude 10° 06:31:45 10° 16° (NNE) 2,529 6.6 -10.4°
Maximum altitude 06:37:24 89° 104° (ESE) 896 4.4 -9.6°
Drops below altitude 10° 06:43:11 10° 197° (SSW) 2,581 6.8 -8.8°
Sets 06:45:36 0° 198° (SSW) 3,531 7.5 -8.5°
